Weather History for KMWK - December, 2012

Change the Weather History Date:

Monday, December 3, 2012

  Actual Average (KINT) Record (KINT)
Temperature  
Mean Temperature 59 °F -  
Max Temperature 72 °F 52 °F 73 °F (2012)
Min Temperature 46 °F 35 °F 11 °F (1979)
Degree Days  
Heating Degree Days 6    
Growing Degree Days 9 (Base 50)    
Moisture  
Dew Point 49 °F    
Average Humidity 72    
Maximum Humidity 90    
Minimum Humidity 47    
Precipitation  
Precipitation 0.00 in - - ()
Sea Level Pressure  
Sea Level Pressure 30.26 in    
Wind  
Wind Speed 1 mph (South)    
Max Wind Speed 7 mph    
Max Gust Speed -    
Visibility 10 miles    
Events      
Averages and records for this station are not official NWS values.
T = Trace of Precipitation, MM = Missing Value Source: NWS Daily Summary

Daily Weather History Graph

Daily Weather History Graph

Search for Another Location

Airport or City:

Trip Planner

Search our weather history database for the weather conditions in past years. The results will help you decide how hot, cold, wet, or windy it might be!

Date:

Astronomy

Dec. 03, 2012 Rise Set
Actual Time 7:17 AM EST 5:06 PM EST
Civil Twilight 6:49 AM EST 5:35 PM EST
Nautical Twilight 6:17 AM EST 6:07 PM EST
Astronomical Twilight 5:46 AM EST 6:38 PM EST
Moon 9:47 PM EST (12/3) 10:43 AM EST (12/3)
Length of Visible Light 10h 45m
Length of Day
9h 48m
Waning Gibbous, 78% of the Moon is Illuminated
Dec 3
Waning Gibbous
Dec 6
Last Quarter
Dec 13
New
Dec 20
First Quarter
Dec 28
Full

Hourly Weather History & Observations

Time (EST) Temp. Dew Point Humidity Pressure Visibility Wind Dir Wind Speed Gust Speed Precip Events Conditions
12:15 AM 52.2 °F 47.8 °F 85% 30.26 in 10.0 mi Calm Calm - N/A   Mostly Cloudy
12:35 AM 50.2 °F 46.4 °F 87% 30.25 in 10.0 mi Calm Calm - N/A   Overcast
12:55 AM 52.2 °F 48.4 °F 87% 30.25 in 10.0 mi Calm Calm - N/A   Overcast
1:15 AM 52.2 °F 48.4 °F 87% 30.25 in 10.0 mi Calm Calm - N/A   Overcast
1:35 AM 52.2 °F 48.2 °F 86% 30.26 in 10.0 mi Calm Calm - N/A   Overcast
1:55 AM 52.7 °F 48.7 °F 86% 30.26 in 10.0 mi Calm Calm - N/A   Overcast
2:15 AM 53.6 °F 49.1 °F 85% 30.26 in 10.0 mi Calm Calm - N/A   Overcast
2:35 AM 53.4 °F 48.9 °F 85% 30.26 in 10.0 mi Calm Calm - N/A   Overcast
2:55 AM 52.3 °F 48.2 °F 86% 30.26 in 10.0 mi Calm Calm - N/A   Overcast
3:15 AM 52.2 °F 48.2 °F 86% 30.26 in 10.0 mi Calm Calm - N/A   Overcast
3:35 AM 52.2 °F 48.0 °F 86% 30.26 in 10.0 mi Calm Calm - N/A   Overcast
3:55 AM 52.9 °F 48.6 °F 85% 30.25 in 10.0 mi Calm Calm - N/A   Overcast
4:15 AM 52.5 °F 48.2 °F 85% 30.25 in 10.0 mi Calm Calm - N/A   Overcast
4:35 AM 52.3 °F 48.2 °F 86% 30.25 in 10.0 mi Calm Calm - N/A   Mostly Cloudy
4:55 AM 50.9 °F 47.1 °F 87% 30.25 in 10.0 mi Calm Calm - N/A   Mostly Cloudy
5:35 AM 49.5 °F 46.2 °F 89% 30.26 in 10.0 mi Calm Calm - N/A   Scattered Clouds
5:55 AM 48.6 °F 45.3 °F 89% 30.26 in 10.0 mi Calm Calm - N/A   Scattered Clouds
6:15 AM 48.0 °F 45.0 °F 89% 30.26 in 10.0 mi Calm Calm - N/A   Clear
6:35 AM 47.1 °F 44.2 °F 90% 30.26 in 10.0 mi Calm Calm - N/A   Scattered Clouds
6:55 AM 48.2 °F 45.0 °F 89% 30.27 in 10.0 mi Calm Calm - N/A   Mostly Cloudy
7:15 AM 48.0 °F 45.0 °F 89% 30.28 in 10.0 mi Calm Calm - N/A   Scattered Clouds
7:35 AM 46.9 °F 44.1 °F 90% 30.28 in 5.0 mi Calm Calm - N/A   Scattered Clouds
7:55 AM 46.8 °F 44.1 °F 90% 30.28 in 7.0 mi Calm Calm - N/A   Clear
8:15 AM 46.9 °F 44.1 °F 90% 30.28 in 7.0 mi Calm Calm - N/A   Clear
8:35 AM 50.0 °F 46.8 °F 89% 30.29 in 7.0 mi SE 3.5 mph - N/A   Clear
8:55 AM 52.5 °F 48.4 °F 86% 30.29 in 10.0 mi Calm Calm - N/A   Scattered Clouds
9:15 AM 55.0 °F 49.3 °F 81% 30.29 in 10.0 mi Calm Calm - N/A   Scattered Clouds
9:35 AM 55.6 °F 49.8 °F 81% 30.30 in 10.0 mi Calm Calm - N/A   Clear
9:55 AM 58.8 °F 50.7 °F 74% 30.30 in 10.0 mi Calm Calm - N/A   Clear
10:15 AM 60.3 °F 51.4 °F 73% 30.29 in 10.0 mi Calm Calm - N/A   Clear
10:35 AM 62.8 °F 51.8 °F 67% 30.29 in 10.0 mi Calm Calm - N/A   Clear
10:55 AM 65.3 °F 52.3 °F 63% 30.29 in 10.0 mi Calm Calm - N/A   Clear
11:15 AM 67.3 °F 52.2 °F 58% 30.28 in 10.0 mi Calm Calm - N/A   Mostly Cloudy
11:35 AM 68.9 °F 51.3 °F 53% 30.28 in 10.0 mi Calm Calm - N/A   Mostly Cloudy
11:55 AM 68.0 °F 50.5 °F 54% 30.27 in 10.0 mi Calm Calm - N/A   Clear
12:15 PM 68.0 °F 50.9 °F 54% 30.26 in 10.0 mi SSW 4.6 mph - N/A   Scattered Clouds
12:35 PM 70.3 °F 51.4 °F 51% 30.25 in 10.0 mi South 3.5 mph - N/A   Mostly Cloudy
12:55 PM 70.3 °F 51.6 °F 51% 30.25 in 10.0 mi SW 3.5 mph - N/A   Mostly Cloudy
1:15 PM 70.7 °F 50.9 °F 49% 30.24 in 10.0 mi SSW 4.6 mph - N/A   Mostly Cloudy
1:35 PM 72.3 °F 51.4 °F 48% 30.24 in 10.0 mi SSW 6.9 mph - N/A   Mostly Cloudy
2:15 PM 71.4 °F 51.1 °F 49% 30.23 in 10.0 mi SW 4.6 mph - N/A   Mostly Cloudy
2:35 PM 71.4 °F 51.1 °F 49% 30.23 in 10.0 mi South 4.6 mph - N/A   Overcast
2:55 PM 72.5 °F 50.9 °F 47% 30.22 in 10.0 mi SSW 4.6 mph - N/A   Scattered Clouds
3:15 PM 72.3 °F 51.6 °F 48% 30.22 in 10.0 mi South 3.5 mph - N/A   Scattered Clouds
3:35 PM 72.3 °F 51.4 °F 48% 30.22 in 10.0 mi SSE 3.5 mph - N/A   Scattered Clouds
3:55 PM 71.6 °F 51.3 °F 49% 30.22 in 10.0 mi Calm Calm - N/A   Scattered Clouds
4:15 PM 71.1 °F 51.4 °F 50% 30.23 in 10.0 mi Calm Calm - N/A   Clear
4:35 PM 70.3 °F 51.1 °F 50% 30.23 in 10.0 mi SSE 3.5 mph - N/A   Clear
4:55 PM 69.4 °F 51.3 °F 52% 30.23 in 10.0 mi Calm Calm - N/A   Clear
5:15 PM 66.7 °F 51.8 °F 59% 30.24 in 10.0 mi SE 3.5 mph - N/A   Clear
5:35 PM 65.7 °F 51.8 °F 61% 30.24 in 10.0 mi Calm Calm - N/A   Clear
5:55 PM 64.6 °F 51.8 °F 63% 30.24 in 10.0 mi Calm Calm - N/A   Clear
6:15 PM 61.3 °F 50.9 °F 69% 30.25 in 10.0 mi Calm Calm - N/A   Clear
6:35 PM 62.8 °F 51.1 °F 66% 30.25 in 10.0 mi SSE 3.5 mph - N/A   Clear
6:55 PM 62.6 °F 50.9 °F 66% 30.25 in 10.0 mi Calm Calm - N/A   Clear
7:15 PM 63.0 °F 50.9 °F 65% 30.25 in 10.0 mi Calm Calm - N/A   Clear
7:35 PM 60.1 °F 50.2 °F 70% 30.26 in 10.0 mi Calm Calm - N/A   Mostly Cloudy
7:55 PM 60.4 °F 50.4 °F 69% 30.26 in 10.0 mi Calm Calm - N/A   Overcast
8:15 PM 62.1 °F 50.7 °F 66% 30.25 in 10.0 mi Calm Calm - N/A   Mostly Cloudy
8:35 PM 62.6 °F 50.4 °F 64% 30.26 in 10.0 mi Calm Calm - N/A   Overcast
8:55 PM 62.2 °F 50.5 °F 65% 30.26 in 10.0 mi Calm Calm - N/A   Mostly Cloudy
9:15 PM 61.0 °F 50.4 °F 68% 30.26 in 10.0 mi SE 3.5 mph - N/A   Scattered Clouds
9:35 PM 60.1 °F 50.2 °F 70% 30.26 in 10.0 mi Calm Calm - N/A   Scattered Clouds
9:55 PM 60.4 °F 50.0 °F 68% 30.26 in 10.0 mi Calm Calm - N/A   Scattered Clouds
10:15 PM 59.9 °F 50.0 °F 70% 30.27 in 10.0 mi Calm Calm - N/A   Clear
10:35 PM 57.7 °F 49.5 °F 74% 30.26 in 10.0 mi Calm Calm - N/A   Clear
10:55 PM 57.2 °F 50.0 °F 77% 30.26 in 10.0 mi Calm Calm - N/A   Clear
11:15 PM 58.3 °F 50.0 °F 74% 30.27 in 10.0 mi Calm Calm - N/A   Clear
11:35 PM 57.0 °F 50.0 °F 77% 30.26 in 10.0 mi Calm Calm - N/A   Clear
11:55 PM 54.0 °F 47.8 °F 80% 30.26 in 10.0 mi Calm Calm - N/A   Clear